TimeCDT,TemperatureF,Dew PointF,Humidity,Sea Level PressureIn,VisibilityMPH,Wind Direction,Wind SpeedMPH,Gust SpeedMPH,PrecipitationIn,Events,Conditions,WindDirDegrees,DateUTC
12:53 AM,27.0,21.9,81,30.22,10.0,Calm,Calm,-,N/A,,Clear,0,2012-10-07 05:53:00
1:53 AM,26.1,21.0,81,30.22,10.0,Calm,Calm,-,N/A,,Clear,0,2012-10-07 06:53:00
2:53 AM,23.0,19.0,85,30.20,10.0,Calm,Calm,-,N/A,,Clear,0,2012-10-07 07:53:00
3:53 AM,21.9,18.0,85,30.18,10.0,Calm,Calm,-,N/A,,Clear,0,2012-10-07 08:53:00
4:53 AM,19.9,17.1,89,30.18,10.0,Calm,Calm,-,N/A,,Clear,0,2012-10-07 09:53:00
5:53 AM,21.9,18.0,85,30.17,10.0,Calm,Calm,-,N/A,,Clear,0,2012-10-07 10:53:00
6:53 AM,21.9,17.1,82,30.17,10.0,Calm,Calm,-,N/A,,Clear,0,2012-10-07 11:53:00
7:53 AM,23.0,19.9,88,30.17,10.0,Calm,Calm,-,N/A,,Clear,0,2012-10-07 12:53:00
8:53 AM,30.9,26.1,82,30.15,10.0,Calm,Calm,-,N/A,,Clear,0,2012-10-07 13:53:00
9:53 AM,37.9,25.0,60,30.14,10.0,Variable,5.8,-,N/A,,Clear,0,2012-10-07 14:53:00
10:53 AM,42.1,21.9,45,30.12,10.0,West,9.2,-,N/A,,Clear,260,2012-10-07 15:53:00
11:53 AM,45.0,21.0,39,30.10,10.0,WSW,9.2,17.3,N/A,,Clear,250,2012-10-07 16:53:00
12:53 PM,46.0,19.9,35,30.09,10.0,SW,10.4,18.4,N/A,,Partly Cloudy,220,2012-10-07 17:53:00
1:53 PM,48.0,19.0,32,30.06,10.0,West,9.2,20.7,N/A,,Scattered Clouds,260,2012-10-07 18:53:00
2:53 PM,48.9,18.0,29,30.03,10.0,Variable,6.9,17.3,N/A,,Partly Cloudy,0,2012-10-07 19:53:00
3:53 PM,46.9,17.1,30,30.02,10.0,WSW,8.1,17.3,N/A,,Clear,240,2012-10-07 20:53:00
4:53 PM,46.9,18.0,32,30.00,10.0,SW,9.2,-,N/A,,Clear,230,2012-10-07 21:53:00
5:53 PM,46.0,17.1,31,30.00,10.0,SW,6.9,-,N/A,,Clear,230,2012-10-07 22:53:00
6:53 PM,43.0,18.0,37,30.00,10.0,SW,3.5,-,N/A,,Clear,220,2012-10-07 23:53:00
7:53 PM,36.0,19.0,50,30.00,10.0,South,3.5,-,N/A,,Clear,180,2012-10-08 00:53:00
8:53 PM,37.0,19.0,48,29.99,10.0,South,3.5,-,N/A,,Clear,190,2012-10-08 01:53:00
9:53 PM,39.0,19.9,46,29.96,10.0,Variable,4.6,-,N/A,,Clear,0,2012-10-08 02:53:00
10:53 PM,39.0,19.0,45,29.94,10.0,South,4.6,-,N/A,,Clear,180,2012-10-08 03:53:00
11:53 PM,39.0,19.0,45,29.93,10.0,South,5.8,-,N/A,,Clear,180,2012-10-08 04:53:00